Weather in Dema

Russia / Orenburg Oblast     53°06′22″N   54°25′34″E
temp.,
°C
wind,
m/s
gust,
m/s
humid.,
%
clouds,
%
prec.,
mm/h
press.,
hPa
HPBL,
m
28 february, sun
sun2823:000ssw5998100 2.1 1000448
02:00−1sw5898100 0.9 999439
05:00−1ssw4898100 1.7 998340
08:00−2sw3598100 0.8 998145
11:00−3wnw4597100 1.5 999202
14:00−5wnw569687 0.1 1001246
17:00−6wnw689593 0.3 1004297
20:00−10nw5796100 0.1 1007164
1 march, mon
mon123:00−14nw4696100 0.2 100998
02:00−17nw339767 0.0 101134
05:00−18wnw239868 0.0 101320
08:00−17nw339788 0.1 101571
11:00−15nw349590 0.1 1017173
14:00−13nw3492100 0.1 1018314
17:00−14wnw4694100 0.1 1020280
20:00−19wnw349986 0.0 102141
2 march, tue
tue223:00−21w2310083 0.0 102220
02:00−22w3310099 0.0 102128
05:00−24wsw2310086 0.0 102120
08:00−23ssw3410072 0.0 101969
11:00−18ssw6109785 0.1 1017275
14:00−14ssw81294100 0.2 1013397
17:00−11ssw81393100 1.1 1011639
20:00−8ssw81594100 1.1 1008654
3 march, wed
wed323:00−5sw71394100 1.9 1006541
02:00−4sw71394100 0.7 1003493
05:00−4sw61294100 1.1 1003367
08:00−4wsw469698 0.3 1003194
11:00−3wsw249699 0.4 1004251
14:00−2w3494100 0.1 1004391
17:00−3wnw469499 0.3 1004366
20:00−5wnw4695100 0.1 1004295
4 march, thu
thu423:00−5nw599397 0.3 1006374
02:00−11nw479489 0.0 1007126
05:00−13nw449764 0.0 100863
08:00−15wnw349821 0.0 101036
11:00−12w479660 0.1 1011220
14:00−9wsw5995100 0.0 1010354
17:00−8sw7129199 0.1 1010394
20:00−8sw9179189 0.0 1008582